Location: Lawrence Hall of Science
(37.8785°N, 122.2415°W)
Time: 17:44:55
(UTC-08:00)

ARGOS - Visible Passes

Search period start: 25 February 2018 00:00
Search period end: 07 March 2018 00:00
Orbit: 820 x 835 km, 98.6° (Epoch: 24 February)

Date Brightness Start Highest point End Pass type
(mag) Time Alt. Az. Time Alt. Az. Time Alt. Az.
25 Feb 5.5 20:55:04 15° N 20:55:04 15° N 20:55:54 10° N visible
26 Feb 5.3 20:36:08 15° N 20:36:08 15° N 20:37:07 10° N visible
27 Feb 5.2 20:17:12 15° NNE 20:17:12 15° NNE 20:18:12 10° N visible
28 Feb 5.2 19:58:16 13° NNE 19:58:16 13° NNE 19:59:04 10° NNE visible
28 Feb 5.8 21:39:46 13° NNW 21:39:46 13° NNW 21:40:21 10° NNW visible
01 Mar 5.3 19:39:20 10° NE 19:39:20 10° NE 19:39:30 10° NNE visible
01 Mar 5.5 21:20:50 16° NNW 21:20:50 16° NNW 21:21:54 10° NNW visible
02 Mar 5.2 21:01:54 19° N 21:01:54 19° N 21:03:19 10° N visible
03 Mar 5.0 20:42:59 20° N 20:42:59 20° N 20:44:37 10° N visible
04 Mar 5.0 20:24:03 19° NNE 20:24:03 19° NNE 20:25:45 10° N visible
04 Mar 6.0 22:05:33 11° NW 22:05:33 11° NW 22:05:50 10° NW visible
05 Mar 5.0 20:05:07 17° NNE 20:05:07 17° NNE 20:06:43 10° NNE visible
05 Mar 5.7 21:46:37 15° NNW 21:46:37 15° NNW 21:47:38 10° NNW visible
06 Mar 5.1 19:46:11 13° NE 19:46:11 13° NE 19:47:23 10° NNE visible
06 Mar 5.3 21:27:41 20° NNW 21:27:41 20° NNW 21:29:15 10° NNW visible
